TimeEDT,TemperatureF,Dew PointF,Humidity,Sea Level PressureIn,VisibilityMPH,Wind Direction,Wind SpeedMPH,Gust SpeedMPH,PrecipitationIn,Events,Conditions,WindDirDegrees,DateUTC
12:53 AM,68.0,62.1,81,30.03,10.0,Calm,Calm,-,N/A,,Clear,0,2013-07-26 04:53:00
1:53 AM,66.0,62.1,87,30.02,10.0,NNE,5.8,-,N/A,,Clear,30,2013-07-26 05:53:00
2:53 AM,66.9,61.0,81,30.01,10.0,NNE,4.6,-,N/A,,Clear,20,2013-07-26 06:53:00
3:53 AM,66.0,61.0,84,30.01,10.0,North,5.8,-,N/A,,Clear,10,2013-07-26 07:53:00
4:53 AM,63.0,60.1,90,30.00,10.0,NE,5.8,-,N/A,,Clear,40,2013-07-26 08:53:00
5:53 AM,64.9,60.1,84,30.01,10.0,Calm,Calm,-,N/A,,Clear,0,2013-07-26 09:53:00
6:53 AM,64.0,61.0,90,30.04,10.0,North,5.8,-,N/A,,Scattered Clouds,350,2013-07-26 10:53:00
7:53 AM,64.9,62.1,90,30.06,10.0,Calm,Calm,-,N/A,,Partly Cloudy,0,2013-07-26 11:53:00
8:53 AM,68.0,62.1,81,30.06,10.0,ENE,3.5,-,N/A,,Partly Cloudy,60,2013-07-26 12:53:00
9:53 AM,72.0,61.0,68,30.07,10.0,Calm,Calm,-,N/A,,Scattered Clouds,0,2013-07-26 13:53:00
10:53 AM,75.9,63.0,64,30.06,10.0,Calm,Calm,-,N/A,,Partly Cloudy,0,2013-07-26 14:53:00
11:53 AM,79.0,64.9,62,30.06,10.0,WNW,5.8,-,N/A,,Scattered Clouds,290,2013-07-26 15:53:00
12:53 PM,81.0,66.0,60,30.04,10.0,Calm,Calm,-,N/A,,Scattered Clouds,0,2013-07-26 16:53:00
1:53 PM,82.9,66.9,58,30.03,10.0,WNW,5.8,-,N/A,,Scattered Clouds,300,2013-07-26 17:53:00
2:53 PM,84.0,66.9,56,30.00,10.0,Variable,3.5,-,N/A,,Scattered Clouds,0,2013-07-26 18:53:00
3:53 PM,86.0,68.0,55,29.97,10.0,North,6.9,-,N/A,,Scattered Clouds,350,2013-07-26 19:53:00
4:12 PM,84.2,66.2,55,30.00,10.0,NNW,9.2,-,N/A,Thunderstorm,Thunderstorm,340,2013-07-26 20:12:00
4:28 PM,73.4,66.2,78,30.02,2.5,SSW,18.4,31.1,0.00,Rain-Thunderstorm,Light Thunderstorms and Rain,200,2013-07-26 20:28:00
4:30 PM,73.4,66.2,78,30.02,1.5,South,16.1,31.1,0.00,Rain-Thunderstorm,Thunderstorms and Rain,180,2013-07-26 20:30:00
4:33 PM,71.6,68.0,88,30.02,1.0,South,26.5,31.1,0.00,Rain-Thunderstorm,Heavy Thunderstorms and Rain,190,2013-07-26 20:33:00
4:37 PM,71.6,68.0,88,30.03,1.2,South,17.3,31.1,0.04,Rain-Thunderstorm,Thunderstorms and Rain,170,2013-07-26 20:37:00
4:39 PM,71.6,66.2,83,30.03,2.0,SSE,15.0,31.1,0.08,Rain-Thunderstorm,Light Thunderstorms and Rain,160,2013-07-26 20:39:00
4:41 PM,71.6,66.2,83,30.03,3.0,SE,10.4,31.1,0.10,Rain-Thunderstorm,Light Thunderstorms and Rain,140,2013-07-26 20:41:00
4:43 PM,71.6,66.2,83,30.03,2.0,ESE,6.9,-,0.11,Rain-Thunderstorm,Thunderstorms and Rain,120,2013-07-26 20:43:00
4:46 PM,71.6,66.2,83,30.03,3.0,ESE,11.5,-,0.12,Rain-Thunderstorm,Light Thunderstorms and Rain,110,2013-07-26 20:46:00
5:45 PM,73.4,68.0,83,30.03,10.0,NE,6.9,-,0.00,,Mostly Cloudy,40,2013-07-26 21:45:00
5:53 PM,73.0,69.1,87,30.00,10.0,ENE,5.8,-,0.00,,Mostly Cloudy,60,2013-07-26 21:53:00
6:53 PM,77.0,70.0,79,29.98,10.0,SSE,5.8,-,N/A,,Mostly Cloudy,160,2013-07-26 22:53:00
7:53 PM,75.9,70.0,82,29.98,10.0,SE,4.6,-,N/A,,Mostly Cloudy,130,2013-07-26 23:53:00
8:53 PM,73.0,70.0,90,29.98,10.0,East,3.5,-,N/A,,Mostly Cloudy,90,2013-07-27 00:53:00
9:53 PM,73.0,70.0,90,29.99,10.0,East,3.5,-,N/A,,Mostly Cloudy,80,2013-07-27 01:53:00
10:53 PM,73.0,66.9,81,29.99,10.0,NW,5.8,-,N/A,,Mostly Cloudy,320,2013-07-27 02:53:00
11:53 PM,72.0,68.0,87,29.98,10.0,North,5.8,-,N/A,,Mostly Cloudy,10,2013-07-27 03:53:00